DateTimeUTC,F1_A11,F1_S11,BsB_S11,BsG_S11,BsR_S11,BbsB_S11,BbsG_S11,BbsR_S11,BaB_A11,BaG_A11,BaR_A11,Tu_S11,T_S11,Uu_S11,U_S11,P_S11,T1_A11
2021-07-13T00:00:00Z,00000200,20000000,,,,,,,-000.10,0000.20,-000.24,19.0,25.8,10.3,06.8,0671.7,31.1
2021-07-13T00:01:00Z,00000200,20000000,,,,,,,-000.06,-000.35,0000.11,19.0,25.8,10.3,06.8,0671.7,31.1
2021-07-13T00:02:00Z,00000200,20000000,,,,,,,0000.41,0000.21,0000.05,19.0,25.8,10.3,06.8,0671.7,31.1
2021-07-13T00:03:00Z,00000200,60000000,,,,,,,-000.39,0000.04,0000.10,19.0,25.8,10.3,06.8,0671.7,31.1
2021-07-13T00:04:00Z,00000200,40000000,0001.96,0001.51,0000.85,0000.81,0000.40,0000.40,0000.26,0000.20,-000.01,19.1,25.6,10.1,06.8,0672.6,31.1
2021-07-13T00:05:00Z,00000200,00000000,0002.79,0001.41,0000.60,0000.37,0000.14,0000.01,0000.09,-000.20,0000.28,19.2,25.5,10.1,06.8,0672.6,31.1
2021-07-13T00:06:00Z,00000200,00000000,0002.04,0001.58,0000.73,0000.43,0000.17,0000.22,-000.10,0000.17,0000.03,19.1,25.5,10.1,06.9,0672.6,31.1
2021-07-13T00:07:00Z,00000200,00000000,0001.87,0001.24,0000.39,0000.94,0000.28,0000.11,0000.34,0000.18,-000.13,19.1,25.5,10.1,06.9,0672.5,31.1
2021-07-13T00:08:00Z,00000200,00000000,0002.68,0001.30,0000.51,0000.16,0000.33,0000.14,0000.04,0000.03,0000.29,19.1,25.5,10.1,06.9,0672.5,31.1
2021-07-13T00:09:00Z,00000200,00000000,0002.10,0001.79,0000.54,0000.24,0000.26,-000.01,0000.28,0000.33,-000.01,19.1,25.5,10.1,06.9,0672.5,31.1
2021-07-13T00:10:00Z,00000200,00000000,0002.22,0001.69,0000.95,-000.30,0000.48,0000.04,-000.08,0000.07,0000.21,19.1,25.4,10.1,06.9,0672.5,31.1
2021-07-13T00:11:00Z,00000200,00000000,0001.61,0001.94,0000.62,0000.50,0000.16,0000.12,-000.03,-000.06,0000.09,19.1,25.4,10.1,06.8,0672.5,31.1
2021-07-13T00:12:00Z,00000200,00000000,0002.24,0001.86,0000.78,0000.75,0000.23,0000.01,0000.48,0000.10,-000.14,19.1,25.4,10.1,06.9,0672.5,31.1
2021-07-13T00:13:00Z,00000200,00000000,0002.45,0001.56,0000.65,0000.53,0000.04,-000.18,0000.08,0000.43,-000.13,19.1,25.4,10.1,06.9,0672.5,31.1
2021-07-13T00:14:00Z,00000200,00000000,0001.90,0001.84,0000.58,0000.47,0000.25,0000.36,-000.14,-000.56,0000.44,19.1,25.4,10.1,06.8,0672.5,31.1
2021-07-13T00:15:00Z,00000200,00000000,0003.15,0001.58,0000.63,0000.69,0000.19,0000.10,-000.09,0000.47,-000.15,19.1,25.4,10.2,06.9,0672.5,31.1
2021-07-13T00:16:00Z,00000200,00000000,0002.70,0001.51,0000.58,0000.69,0000.28,0000.09,0000.22,0000.19,0000.20,19.1,25.4,10.1,06.8,0672.5,31.1
2021-07-13T00:17:00Z,00000200,00000000,0002.36,0001.39,0000.47,0000.09,0000.12,0000.38,-000.03,-000.12,0000.08,19.1,25.4,10.1,06.8,0672.5,31.1
2021-07-13T00:18:00Z,00000200,00000000,0003.34,0001.39,0000.63,0000.46,0000.22,-000.07,0000.48,0000.30,-000.04,19.1,25.4,10.0,06.8,0672.5,31.1
2021-07-13T00:19:00Z,00000200,00000000,0002.70,0001.39,0000.48,0000.43,-000.14,0000.06,-000.17,0000.02,0000.20,19.1,25.4,10.0,06.8,0672.5,31.1
2021-07-13T00:20:00Z,00000200,00000000,0001.80,0001.38,0000.76,0001.00,-000.01,0000.11,0000.33,-000.03,-000.22,19.1,25.4,10.0,06.8,0672.5,31.1
2021-07-13T00:21:00Z,00000200,00000000,0002.02,0001.71,0000.88,0000.64,0000.12,0000.40,-000.11,0000.01,0000.34,19.1,25.4,10.0,06.8,0672.5,31.1
2021-07-13T00:22:00Z,00000200,00000000,0002.59,0001.30,0000.69,0000.01,0000.25,0000.19,0000.22,-000.13,0000.13,19.1,25.4,10.0,06.8,0672.5,31.1
2021-07-13T00:23:00Z,00000200,00000000,0002.05,0001.46,0000.42,0000.65,0000.04,0000.15,0000.02,0000.44,-000.01,19.1,25.4,10.0,06.8,0672.5,31.1
2021-07-13T00:24:00Z,00000200,00000000,0001.89,0001.90,0000.88,0000.31,-000.34,0000.36,0000.18,-000.04,0000.01,19.1,25.4,10.0,06.8,0672.5,31.1
2021-07-13T00:25:00Z,00000200,00000000,0002.53,0001.83,0000.63,0000.32,-000.08,0000.39,0000.20,0000.19,0000.07,19.1,25.4,09.9,06.8,0672.5,31.1
2021-07-13T00:26:00Z,00000200,00000000,0002.11,0001.48,0000.62,0000.52,0000.30,-000.38,0000.09,0000.07,0000.06,19.1,25.4,10.0,06.8,0672.5,31.1
2021-07-13T00:27:00Z,00000200,00000000,0003.02,0001.66,0000.79,0000.22,0000.18,0000.07,0000.09,0000.27,0000.21,19.1,25.3,09.9,06.8,0672.5,31.1
2021-07-13T00:28:00Z,00000200,00000000,0002.63,0001.17,0001.01,0000.73,0000.15,0000.22,0000.06,-000.07,0000.04,19.1,25.3,09.9,06.8,0672.5,31.1
2021-07-13T00:29:00Z,00000200,00000000,0003.03,0001.44,0000.61,0000.87,0000.03,0000.01,0000.03,0000.12,0000.24,19.1,25.3,09.9,06.7,0672.5,31.1
2021-07-13T00:30:00Z,00000200,00000000,0002.14,0001.39,0000.96,0000.26,0000.19,0000.14,0000.27,0000.18,0000.13,19.1,25.3,09.9,06.8,0672.5,31.1
2021-07-13T00:31:00Z,00000200,00000000,0002.39,0001.90,0000.83,0000.18,0000.32,-000.05,-000.12,0000.11,-000.31,19.1,25.3,09.9,06.8,0672.6,31.1
2021-07-13T00:32:00Z,00000200,00000000,0002.35,0001.44,0000.96,0000.41,0000.13,0000.28,0000.16,0000.07,0000.01,19.0,25.3,09.9,06.7,0672.6,31.1
2021-07-13T00:33:00Z,00000200,00000000,0002.49,0001.61,0000.83,0000.30,0000.15,0000.19,0000.01,0000.05,0000.39,19.0,25.3,09.9,06.8,0672.5,31.1
2021-07-13T00:34:00Z,00000200,00000000,0002.97,0001.61,0000.96,0000.41,0000.21,0000.25,0000.10,-000.06,0000.07,19.0,25.3,09.8,06.7,0672.5,31.1
2021-07-13T00:35:00Z,00000200,00000000,0002.38,0001.73,0000.91,0000.45,0000.12,0000.16,-000.10,0000.23,0000.09,19.0,25.3,09.8,06.7,0672.5,31.1
2021-07-13T00:36:00Z,00000200,00000000,0002.16,0001.60,0000.69,0000.53,0000.21,-000.11,0000.33,0000.18,0000.03,19.0,25.3,09.8,06.7,0672.5,31.1
2021-07-13T00:37:00Z,00000200,00000000,0001.47,0001.42,0001.05,0000.29,0000.19,0000.14,-000.23,-000.35,-000.16,19.0,25.3,09.9,06.7,0672.5,31.1
2021-07-13T00:38:00Z,00000200,00000000,0002.80,0001.77,0000.39,0000.15,0000.11,0000.14,0000.31,0000.14,0000.34,19.0,25.3,09.8,06.7,0672.5,31.1
2021-07-13T00:39:00Z,00000200,00000000,0001.83,0001.44,0000.71,0000.80,0000.30,0000.02,0000.01,-000.02,-000.04,19.0,25.3,09.7,06.6,0672.5,31.1
2021-07-13T00:40:00Z,00000200,00000000,0002.58,0001.31,0000.96,0000.66,0000.17,-000.05,0000.07,0000.05,0000.10,19.0,25.3,09.8,06.7,0672.5,31.1
2021-07-13T00:41:00Z,00000200,00000000,0002.44,0001.48,0000.56,0000.90,0000.34,0000.48,0000.11,0000.26,0000.01,19.0,25.3,09.8,06.7,0672.5,31.1
2021-07-13T00:42:00Z,00000200,00000000,0002.71,0001.70,0000.49,0000.63,-000.05,-000.21,0000.13,-000.14,0000.11,19.0,25.2,09.7,06.6,0672.5,31.1
2021-07-13T00:43:00Z,00000200,00000000,0002.92,0001.51,0000.48,0000.40,0000.05,-000.17,0000.34,0000.30,0000.17,19.0,25.2,09.7,06.6,0672.5,31.1
2021-07-13T00:44:00Z,00000200,00000000,0002.38,0001.61,0000.65,0000.72,0000.30,-000.18,0000.24,0000.45,0000.14,19.0,25.3,09.6,06.5,0672.4,31.1
2021-07-13T00:45:00Z,00000200,00000000,0002.35,0001.65,0000.64,0000.74,0000.05,0000.19,-000.19,-000.58,-000.48,19.1,25.3,09.6,06.6,0672.4,31.1
2021-07-13T00:46:00Z,00000200,00000000,0002.33,0001.21,0000.30,0000.35,0000.08,-000.20,-000.17,0000.16,0000.42,19.1,25.3,09.5,06.5,0672.4,31.1
2021-07-13T00:47:00Z,00000200,00000000,0002.98,0001.49,0000.58,0000.28,0000.11,0000.27,-000.00,0000.37,0000.11,19.1,25.3,09.4,06.5,0672.4,31.1
2021-07-13T00:48:00Z,00000200,00000000,0002.73,0001.22,0000.92,0000.79,0000.12,0000.03,0000.25,-000.04,-000.10,19.1,25.3,09.3,06.4,0672.4,31.1
2021-07-13T00:49:00Z,00000200,00000000,0002.18,0001.72,0001.00,0000.77,0000.30,-000.13,0000.07,-000.11,0000.14,19.1,25.3,09.4,06.5,0672.4,31.1
2021-07-13T00:50:00Z,00000200,00000000,0003.41,0001.42,0000.93,0000.69,0000.43,-000.04,-000.09,0000.02,-000.01,19.1,25.3,09.3,06.4,0672.4,31.1
2021-07-13T00:51:00Z,00000200,00000000,0002.08,0001.66,0000.38,0000.18,0000.15,0000.04,0000.28,0000.19,0000.27,19.1,25.3,09.3,06.4,0672.4,31.1
2021-07-13T00:52:00Z,00000200,00000000,0001.76,0001.62,0000.81,0000.24,0000.42,-000.11,-000.04,0000.13,0000.08,19.1,25.3,09.2,06.3,0672.4,31.1
2021-07-13T00:53:00Z,00000200,00000000,0002.62,0001.80,0001.02,0000.40,-000.01,-000.06,0000.05,-000.11,-000.14,19.1,25.3,09.3,06.3,0672.4,31.1
2021-07-13T00:54:00Z,00000200,00000000,0002.33,0001.56,0000.76,0000.05,-000.01,0000.05,0000.22,0000.27,0000.06,19.1,25.3,09.2,06.3,0672.4,31.1
2021-07-13T00:55:00Z,00000200,00000000,0002.08,0001.44,0000.76,0000.69,0000.09,0000.12,0000.12,0000.26,0000.06,19.1,25.3,09.2,06.3,0672.4,31.1
2021-07-13T00:56:00Z,00000200,00000000,0003.01,0001.47,0000.84,0000.78,0000.12,0000.12,-000.34,-000.21,0000.15,19.1,25.3,09.1,06.3,0672.4,31.1
2021-07-13T00:57:00Z,00000200,40000000,,,,,,,0000.86,0000.32,0000.20,19.1,25.3,09.5,06.5,0672.4,31.1
2021-07-13T00:58:00Z,00000200,60000000,,,,,,,-000.78,-000.06,-000.27,18.8,25.4,09.4,06.3,0671.4,31.1
2021-07-13T00:59:00Z,00000200,20000000,,,,,,,0000.18,0000.07,-000.28,18.8,25.5,09.2,06.1,0671.4,31.1
